[[{"header":{"parameterUnit":"m.s-1","parameterCategory":1,"la1":30.2991,"la2":30.254,"lo1":-89.0895,"lo2":-89.0444,"dy":0.0017,"dx":0.0017,"nx":28,"ny":28,"refTime":"2025-03-15T21:00:00:Z","depth":0,"parameterNumber":2,"parameterNumberName":"U-component_of_WINDS"},"data":[0,0,0,0,0,0,0,0,0,0,0,0,0,0,0,0,0,0,0,0,0,0,0,0,0,0,0,0,0,0,0,0,0,0,0,0,0,0,0,0,0,0,0,0,0,0,0,0,0,0,0,0,0,0,0,0,0,0,1.9759,1.9759,0,1.9795,1.9795,1.9796,1.9777,1.9776,1.9775,1.9774,1.9809,1.9811,1.9813,0,0,0,0,0,0,0,0,0,0,0,0,0,1.9673,1.9675,1.9759,1.9759,1.976,1.9795,1.9795,1.9796,1.9777,1.9776,1.9775,1.9774,1.9809,1.9811,1.9813,0,0,0,0,0,0,0,0,0,0,0,0,0,1.971,1.9675,1.9759,1.9755,1.9755,1.9795,1.9795,1.9796,1.9777,1.9776,1.9774,1.9773,1.9808,1.9811,1.9813,1.9859,0,0,1.9822,1.9823,0,0,0,0,0,0,0,0,1.9708,1.9713,1.9755,1.9755,1.9755,1.978,1.9778,1.9817,1.9778,1.9769,1.9774,1.9772,1.9801,1.9804,1.9814,1.9861,1.9862,1.9822,1.9824,1.9825,1.9826,0,0,0,0,0,0,0,1.9705,1.9711,1.9773,1.9755,1.9756,1.9751,1.9754,1.9785,1.9792,1.9769,1.9768,1.9773,1.98,1.9811,1.9814,1.9863,1.9822,1.9824,1.9826,1.9827,1.995,1.9951,0,0,0,0,0,0,1.9703,1.9709,1.9772,1.9774,1.9727,1.9753,1.9757,1.9773,1.9792,1.9793,1.9774,1.9772,1.9807,1.9811,1.9816,1.987,1.9825,1.9827,1.9829,1.9948,1.995,1.9952,0,0,0,0,0,0,1.9701,1.9709,1.977,1.9741,1.9749,1.9756,1.9774,1.9775,1.9785,1.9795,1.9796,1.9784,1.9806,1.9812,1.9849,1.9871,1.9829,1.9831,1.9946,1.9949,1.9951,1.998,0,0,0,0,0,0,1.9699,1.9708,1.9726,1.9742,1.975,1.9803,1.9776,1.9777,1.979,1.9788,1.9805,1.9806,1.9805,1.9845,1.9851,1.9874,1.9833,1.9944,1.9947,1.995,1.9977,1.9983,1.9989,0,0,0,0,0,1.9696,1.9732,1.9727,1.9734,1.9773,1.9804,1.9809,1.9808,1.9792,1.981,1.9816,1.9805,1.9868,1.9849,1.9856,1.988,1.9943,1.9946,1.995,1.9975,1.9982,1.9989,0,0,0,0,0,0,1.9717,1.9734,1.9728,1.9771,1.9787,1.9801,1.9823,1.9816,1.9836,1.9833,1.9831,1.9834,1.9873,1.988,1.9858,1.9926,1.9903,1.9908,1.9919,1.9926,1.9932,1.9929,1.9836,0,0,0,0,0,1.9727,1.9752,1.9765,1.9802,1.981,1.9815,1.9829,1.9827,1.9843,1.9849,1.9858,1.9874,1.9897,1.9912,1.9934,1.9979,1.9982,1.9999,2.0005,2.0009,2.0014,2.0038,2.0046,1.9964,1.9964,1.9964,0,0,1.9748,1.976,1.9775,1.9806,1.9818,1.9844,1.9821,1.9849,1.9868,1.9853,1.9889,1.9896,1.9914,1.9955,1.9973,1.9962,2.0037,2.0014,2.0018,2.0019,2.0043,2.005,2.0057,1.9966,1.9966,1.9965,0,0,1.9798,1.981,1.9841,1.9854,1.9873,1.9876,1.9884,1.99,1.9905,1.9941,1.9931,1.9953,1.9993,2.0006,2.0018,2.0074,2.0065,2.0081,2.011,2.0134,2.0141,2.0147,2.0166,2.0174,2.0086,2.0086,2.0086,0,1.982,1.9859,1.9858,1.9887,1.9901,1.9891,1.9923,1.9935,1.996,1.9969,1.9957,2.0007,2.0018,2.0062,2.0076,2.0086,2.0095,2.0079,2.014,2.0146,2.0151,2.017,2.0178,2.0088,2.0088,2.0087,2.0087,0,1.9886,1.9913,1.9936,1.9961,1.9978,2.0008,2.0012,2.0029,2.0026,2.0031,2.0068,2.0081,2.0105,2.0116,2.0113,2.016,2.0152,2.014,2.0117,2.0161,2.0178,2.0186,2.009,2.009,2.0089,2.0089,0,0,1.9949,1.9974,1.9983,1.9994,2.0015,2.0035,2.0066,2.009,2.0105,2.0122,2.0147,2.0182,2.0171,2.0185,2.0183,2.0205,2.0248,2.019,2.019,2.02,2.0301,2.0309,2.0318,2.0243,2.0244,2.0245,2.0299,0,2.0,2.0053,2.0054,2.0103,2.0128,2.0119,2.0145,2.016,2.0166,2.0188,2.0194,2.0219,2.0203,2.0211,2.0232,2.0239,2.0269,2.0235,2.0266,2.0267,2.0261,2.0327,2.0336,2.0386,2.0306,2.0307,2.0308,0,2.0066,2.0087,2.0138,2.0156,2.0166,2.019,2.0213,2.0234,2.0252,2.0254,2.027,2.0266,2.0297,2.0274,2.0316,2.0293,2.0306,2.0312,2.0314,2.0316,2.0289,2.033,2.0402,2.0409,2.0319,2.0318,2.0318,0,2.0107,2.0147,2.0183,2.0193,2.0215,2.0232,2.0242,2.0258,2.0273,2.0293,2.0303,2.0326,2.0339,2.0357,2.036,2.0343,2.0402,2.0379,2.0405,2.0405,2.0417,2.0416,2.0491,2.0427,2.0427,2.0427,2.0426,0,2.0163,2.0194,2.0202,2.0224,2.0259,2.0261,2.0295,2.0304,2.0318,2.0342,2.0336,2.0358,2.036,2.0383,2.0385,2.042,2.0426,2.0429,2.0429,2.0429,2.0428,2.0436,2.0433,2.0429,2.0428,2.0428,2.0427,0,2.0213,2.022,2.0258,2.0276,2.0281,2.0307,2.0322,2.0343,2.0349,2.0379,2.0386,2.0395,2.0421,2.0426,2.0457,2.0459,2.05,2.0497,2.0494,2.0494,2.0519,2.0516,2.0601,2.0612,2.0541,2.0542,2.0543,0,2.0248,2.0273,2.0293,2.0309,2.032,2.0345,2.0361,2.0363,2.038,2.0402,2.0421,2.0447,2.0468,2.0511,2.052,2.0544,2.0541,2.0569,2.0545,2.0544,2.0541,2.0539,2.0542,2.0574,2.0574,2.0575,2.0576,0,2.031,2.0312,2.0335,2.036,2.0379,2.0398,2.0416,2.0429,2.0434,2.0453,2.0481,2.0497,2.053,2.0556,2.058,2.059,2.0584,2.0584,2.0591,2.059,2.0588,2.0589,2.0506,2.0581,2.0581,2.058,2.058,2.058,2.0353,2.0374,2.0393,2.0419,2.0433,2.045,2.0471,2.048,2.0504,2.0531,2.0531,2.0561,2.0579,2.0611,2.0622,2.0646,2.0637,2.0647,2.065,2.0652,2.0654,2.0585,2.0651,2.065,2.065,2.065,2.065,0,2.0414,2.0425,2.0449,2.0476,2.0496,2.049,2.051,2.0527,2.0554,2.0572,2.0593,2.0625,2.0651,2.0662,2.0688,2.0704,2.0702,2.0711,2.0709,2.0712,2.0661,2.0652,2.0712,2.0712,2.0712,2.0712,2.0712,2.0712,2.0448,2.0483,2.0488,2.0531,2.0542,2.0572,2.0584,2.0601,2.0614,2.0651,2.0672,2.068,2.0695,2.0722,2.0745,2.0748,2.0757,2.0767,2.0769,2.0721,2.0715,2.0709,2.07,2.077,2.077,2.0817,2.0818,2.0818]},{"header":{"parameterUnit":"m.s-1","parameterCategory":1,"la1":30.2991,"la2":30.254,"lo1":-89.0895,"lo2":-89.0444,"dy":0.0017,"dx":0.0017,"nx":28,"ny":28,"refTime":"2025-03-15T21:00:00:Z","depth":0,"parameterNumber":3,"parameterNumberName":"V-component_of_WINDS"},"data":[0,0,0,0,0,0,0,0,0,0,0,0,0,0,0,0,0,0,0,0,0,0,0,0,0,0,0,0,0,0,0,0,0,0,0,0,0,0,0,0,0,0,0,0,0,0,0,0,0,0,0,0,0,0,0,0,0,0,-5.2916,-5.2918,0,-5.318,-5.3183,-5.3186,-5.3167,-5.3163,-5.3159,-5.3155,-5.3427,-5.3438,-5.3448,0,0,0,0,0,0,0,0,0,0,0,0,0,-5.2396,-5.2406,-5.2915,-5.2919,-5.2922,-5.3179,-5.3183,-5.3187,-5.3168,-5.3163,-5.3158,-5.3153,-5.3423,-5.3436,-5.3449,0,0,0,0,0,0,0,0,0,0,0,0,0,-5.2637,-5.2409,-5.2915,-5.2943,-5.2949,-5.3179,-5.3183,-5.3188,-5.3169,-5.3163,-5.3157,-5.3151,-5.3419,-5.3435,-5.3451,-5.367,0,0,-5.3501,-5.3508,0,0,0,0,0,0,0,0,-5.2624,-5.2656,-5.2936,-5.2942,-5.2948,-5.3134,-5.31,-5.3349,-5.317,-5.3085,-5.3155,-5.3148,-5.3334,-5.3357,-5.342,-5.3683,-5.3695,-5.3503,-5.3512,-5.3519,-5.3524,0,0,0,0,0,0,0,-5.2607,-5.2645,-5.302,-5.294,-5.2948,-5.2944,-5.2972,-5.3147,-5.324,-5.3092,-5.3091,-5.3123,-5.3337,-5.3404,-5.3426,-5.3699,-5.3502,-5.3517,-5.3527,-5.3533,-5.4157,-5.4164,0,0,0,0,0,0,-5.2583,-5.2631,-5.3012,-5.3028,-5.2768,-5.2958,-5.2989,-5.3081,-5.3238,-5.3256,-5.3128,-5.3121,-5.3379,-5.3407,-5.3436,-5.3705,-5.3519,-5.3535,-5.3544,-5.4151,-5.4159,-5.4166,0,0,0,0,0,0,-5.2572,-5.2618,-5.3001,-5.283,-5.2878,-5.2973,-5.3076,-5.3089,-5.3156,-5.3265,-5.3281,-5.318,-5.3376,-5.3413,-5.3613,-5.3714,-5.3542,-5.3557,-5.4143,-5.4153,-5.4162,-5.4243,0,0,0,0,0,0,-5.2557,-5.2614,-5.2697,-5.2831,-5.2887,-5.3173,-5.3082,-5.3098,-5.3185,-5.3178,-5.3318,-5.3335,-5.3374,-5.3588,-5.3629,-5.3733,-5.357,-5.4134,-5.4147,-5.4159,-5.4232,-5.4255,-5.4274,0,0,0,0,0,-5.2539,-5.2709,-5.2702,-5.2748,-5.2994,-5.3179,-5.3211,-5.3252,-5.3193,-5.3278,-5.3348,-5.3331,-5.3696,-5.3609,-5.3654,-5.3765,-5.4128,-5.4143,-5.4158,-5.4222,-5.425,-5.4274,0,0,0,0,0,0,-5.2585,-5.2727,-5.272,-5.2939,-5.3047,-5.3175,-5.3284,-5.328,-5.3407,-5.3396,-5.3441,-5.3473,-5.3675,-5.374,-5.364,-5.3987,-5.3904,-5.3929,-5.3937,-5.3965,-5.3985,-5.3966,-5.3583,0,0,0,0,0,-5.262,-5.2758,-5.2875,-5.3057,-5.3111,-5.3189,-5.3271,-5.3293,-5.3407,-5.3453,-5.3537,-5.3648,-5.3788,-5.388,-5.4014,-5.424,-5.4272,-5.4339,-5.436,-5.4377,-5.4399,-5.4526,-5.4558,-5.4216,-5.4216,-5.4216,0,0,-5.2695,-5.2789,-5.2874,-5.3068,-5.3155,-5.3298,-5.3227,-5.3381,-5.3488,-5.3476,-5.3671,-5.3736,-5.3864,-5.4079,-5.4177,-5.4139,-5.45,-5.4397,-5.4409,-5.4422,-5.4545,-5.4577,-5.4606,-5.4226,-5.4225,-5.4223,0,0,-5.2904,-5.2989,-5.3151,-5.3239,-5.337,-5.3421,-5.346,-5.359,-5.3633,-5.3829,-5.3824,-5.3952,-5.4191,-5.4283,-5.4361,-5.4607,-5.4597,-5.465,-5.4762,-5.4885,-5.4912,-5.4936,-5.5026,-5.5057,-5.4671,-5.4671,-5.4671,0,-5.2981,-5.3195,-5.3234,-5.339,-5.3477,-5.3473,-5.3638,-5.3721,-5.389,-5.3951,-5.3905,-5.4207,-5.4293,-5.453,-5.459,-5.4653,-5.47,-5.4635,-5.4904,-5.4929,-5.4952,-5.5039,-5.5072,-5.4677,-5.4676,-5.4675,-5.4675,0,-5.3284,-5.3433,-5.3548,-5.3712,-5.3811,-5.397,-5.4035,-5.4131,-5.4145,-5.42,-5.4401,-5.4503,-5.466,-5.4717,-5.4732,-5.4958,-5.493,-5.4894,-5.4812,-5.499,-5.5072,-5.5105,-5.4685,-5.4683,-5.4681,-5.468,0,0,-5.353,-5.3714,-5.3756,-5.3831,-5.3977,-5.4093,-5.4253,-5.4406,-5.4489,-5.4605,-5.4742,-5.4946,-5.4914,-5.5002,-5.5027,-5.5135,-5.5327,-5.5086,-5.509,-5.513,-5.5585,-5.5613,-5.565,-5.532,-5.5326,-5.5331,-5.5575,0,-5.3756,-5.4039,-5.408,-5.4331,-5.447,-5.4469,-5.4608,-5.4713,-5.477,-5.4897,-5.4959,-5.5104,-5.5049,-5.5104,-5.521,-5.5281,-5.5419,-5.5263,-5.5449,-5.5456,-5.542,-5.5693,-5.5723,-5.5947,-5.5607,-5.5612,-5.5616,0,-5.4058,-5.4184,-5.4448,-5.4577,-5.4637,-5.4761,-5.4906,-5.5027,-5.5147,-5.518,-5.528,-5.5293,-5.546,-5.537,-5.5602,-5.5495,-5.5573,-5.562,-5.563,-5.565,-5.5548,-5.5723,-5.6019,-5.6054,-5.5667,-5.5663,-5.5659,0,-5.4214,-5.4449,-5.4638,-5.4703,-5.4856,-5.4945,-5.5013,-5.5126,-5.5217,-5.5343,-5.5402,-5.5546,-5.5626,-5.5738,-5.5789,-5.5718,-5.6019,-5.5932,-5.6053,-5.6052,-5.6118,-5.6114,-5.6434,-5.6165,-5.6164,-5.6164,-5.6163,0,-5.4463,-5.4626,-5.4711,-5.4828,-5.501,-5.5056,-5.5236,-5.5301,-5.5403,-5.5533,-5.554,-5.5662,-5.5721,-5.5853,-5.5894,-5.6082,-5.6117,-5.615,-5.616,-5.6151,-5.6147,-5.6205,-5.6191,-5.6173,-5.6171,-5.6169,-5.6168,0,-5.4669,-5.4732,-5.4939,-5.5068,-5.5104,-5.5233,-5.5344,-5.5458,-5.5514,-5.5679,-5.572,-5.5808,-5.5964,-5.6026,-5.6216,-5.6244,-5.646,-5.6456,-5.642,-5.6424,-5.6542,-5.6531,-5.6912,-5.6965,-5.6659,-5.6662,-5.6664,0,-5.4825,-5.495,-5.5093,-5.5181,-5.5252,-5.5393,-5.5485,-5.5535,-5.5631,-5.5778,-5.5875,-5.603,-5.6157,-5.6406,-5.6488,-5.6634,-5.6635,-5.6758,-5.6657,-5.6645,-5.664,-5.6633,-5.6647,-5.6778,-5.6781,-5.6783,-5.6785,0,-5.5096,-5.5122,-5.5254,-5.5399,-5.5509,-5.5625,-5.5738,-5.5809,-5.5876,-5.5984,-5.6144,-5.6242,-5.6437,-5.6592,-5.6743,-5.6814,-5.6813,-5.6816,-5.6853,-5.6846,-5.6821,-5.6839,-5.6474,-5.6808,-5.6805,-5.6804,-5.6803,-5.6802,-5.5284,-5.5396,-5.5514,-5.5662,-5.5753,-5.5859,-5.5973,-5.6043,-5.6177,-5.6339,-5.636,-5.6532,-5.665,-5.6853,-5.6931,-5.7066,-5.7034,-5.7086,-5.71,-5.7112,-5.7122,-5.6798,-5.7094,-5.7093,-5.7092,-5.7092,-5.7092,0,-5.5558,-5.5634,-5.5769,-5.5928,-5.6045,-5.6031,-5.6156,-5.6256,-5.6406,-5.6517,-5.6642,-5.6826,-5.6977,-5.7071,-5.7223,-5.7314,-5.7317,-5.7352,-5.7347,-5.7364,-5.714,-5.7095,-5.7347,-5.7347,-5.7347,-5.7347,-5.7347,-5.7347,-5.5714,-5.5904,-5.5943,-5.6179,-5.6254,-5.6422,-5.6495,-5.6594,-5.6682,-5.6888,-5.7013,-5.7073,-5.7177,-5.7337,-5.7476,-5.7499,-5.7556,-5.7595,-5.7616,-5.7406,-5.738,-5.7354,-5.7312,-5.7606,-5.7606,-5.783,-5.7832,-5.7833]}]]